{"data":{"norad_id":47408,"intl_designator":"2021-005BM","name":"STARLINK-2135","alt_names":[],"object_type":"PAYLOAD","status":"ACTIVE","operator":null,"country":"US","launch_date":"2021-01-20","launch_site_code":"AFETR","launch_vehicle":null,"mission":null,"orbit_class":"UNKNOWN","rcs_meters":null,"size_class":null,"mass_kg":null,"dimensions":null,"purposes":["comms"],"wikipedia_slug":null,"has_3d_model":false,"image_url":null,"decayed_at":null,"tle_current":{"epoch":"2026-09-19T11:49:36.721632Z","epoch_age_seconds":112811,"freshness":"FRESH","line1":"1 47408U 21005BM  26262.49278613  .00034781  00000+0  10291-2 0  9996","line2":"2 47408  53.1577 214.8326 0003918  82.1857 277.9590 15.34598870313085","mean_motion":15.3459887,"eccentricity":0.0003918,"inclination_deg":53.1577,"raan_deg":214.8326,"arg_perigee_deg":82.1857,"mean_anomaly_deg":277.959,"bstar":0.0010291,"rev_number":31308,"period_min":93.83559626888,"perigee_km":459.43221084601,"apogee_km":464.79223013519,"semimajor_km":6840.2492204906,"source":"CELESTRAK","updated_at":"2026-09-20T09:00:38.596319Z"}}}